Location: Crescent
(42.8242°N, 73.7329°W)
Time: 09:03:55
(UTC+00:00)

S-56A Canister/Altair - All Passes

Search period start: 17 February 2026 00:00
Search period end: 27 February 2026 00:00
Orbit: 632 x 2485 km, 38.9° (Epoch: 16 February)

Date Brightness Start Highest point End Pass type
(mag) Time Alt. Az. Time Alt. Az. Time Alt. Az.
17 Feb - 03:07:02 10° S 03:10:40 18° SE 03:15:06 10° E night (unlit)
17 Feb - 05:07:26 10° WSW 05:13:15 54° SSE 05:21:59 10° E visible
17 Feb - 07:10:01 10° W 07:17:19 69° S 07:28:35 10° ESE visible
17 Feb - 09:13:20 10° W 09:22:04 50° SSW 09:34:35 10° SE visible
17 Feb - 11:18:20 10° W 11:26:49 25° SW 11:37:09 10° S visible
18 Feb - 02:33:29 10° SSE 02:36:03 14° SE 02:39:00 10° ESE night (unlit)
18 Feb - 04:33:02 10° SW 04:38:25 48° SSE 04:46:14 10° E night (unlit)
18 Feb - 06:35:25 10° W 06:42:11 68° S 06:52:40 10° E visible
18 Feb - 08:38:33 10° W 08:46:45 53° SSW 08:58:48 10° SE visible
18 Feb - 10:43:05 10° W 10:51:28 27° SW 11:02:02 10° SSE visible
19 Feb - 03:58:41 10° SW 04:03:38 41° SSE 04:10:35 10° E night (unlit)
19 Feb - 06:00:51 10° WSW 06:07:09 67° S 06:16:49 10° E visible
19 Feb - 08:03:50 10° W 08:11:31 55° SSW 08:23:00 10° SE visible
19 Feb - 10:07:58 10° W 10:16:07 30° SSW 10:26:47 10° SSE visible
20 Feb - 03:24:22 10° SW 03:28:56 35° SSE 03:35:01 10° E night (unlit)
20 Feb - 05:26:20 10° WSW 05:32:10 65° S 05:41:02 10° E visible
20 Feb - 07:29:10 10° W 07:36:19 57° SSW 07:47:11 10° ESE visible
20 Feb - 09:32:59 10° W 09:40:50 32° SSW 09:51:26 10° SSE visible
20 Feb - 11:43:14 10° SW 11:45:09 10° SW 11:47:08 10° SW daylight
21 Feb - 02:50:07 10° SSW 02:54:15 28° SSE 02:59:30 10° E night (unlit)
21 Feb - 04:51:49 10° WSW 04:57:16 62° S 05:05:20 10° E night (unlit)
21 Feb - 06:54:33 10° W 07:01:14 59° SSW 07:11:23 10° ESE visible
21 Feb - 08:58:05 10° W 09:05:35 34° SSW 09:15:59 10° SSE visible
21 Feb - 11:05:57 10° WSW 11:09:55 12° SW 11:14:15 10° SSW visible
22 Feb - 02:15:56 10° SSW 02:19:38 23° SSE 02:24:02 10° E night (unlit)
22 Feb - 04:17:21 10° WSW 04:22:27 58° SSE 04:29:45 10° E night (unlit)
22 Feb - 06:19:58 10° W 06:26:11 60° S 06:35:37 10° ESE visible
22 Feb - 08:23:17 10° W 08:30:24 36° SSW 08:40:29 10° SE visible
22 Feb - 10:29:53 10° WSW 10:34:41 14° SW 10:40:13 10° SSW visible
23 Feb - 01:41:52 10° S 01:45:01 18° SE 01:48:33 10° ESE night (unlit)
23 Feb - 03:42:53 10° WSW 03:47:40 52° SSE 03:54:14 10° E night (unlit)
23 Feb - 05:45:26 10° W 05:51:13 61° S 05:59:56 10° ESE visible
23 Feb - 07:48:33 10° W 07:55:16 38° SSW 08:04:56 10° SE visible
23 Feb - 09:54:16 10° WSW 09:59:30 16° SW 10:05:42 10° S visible
24 Feb - 01:07:56 10° S 01:10:24 14° SE 01:13:01 10° ESE visible
24 Feb - 03:08:25 10° WSW 03:12:56 47° SSE 03:18:52 10° E night (unlit)
24 Feb - 05:10:54 10° W 05:16:19 61° S 05:24:17 10° ESE night (unlit)
24 Feb - 07:13:53 10° W 07:20:12 40° SSW 07:29:22 10° SE visible
24 Feb - 09:18:56 10° WSW 09:24:20 18° SW 09:30:57 10° S visible
25 Feb - 00:34:27 10° SSE 00:35:46 11° SE 00:37:07 10° SE visible
25 Feb - 02:33:58 10° SW 02:38:14 41° SSE 02:43:34 10° E night (unlit)
25 Feb - 04:36:23 10° W 04:41:27 61° S 04:48:45 10° ESE night (unlit)
25 Feb - 06:39:16 10° W 06:45:12 42° SSW 06:53:50 10° SE visible
25 Feb - 08:43:48 10° WSW 08:49:12 19° SSW 08:56:02 10° S visible
26 Feb - 01:59:30 10° SW 02:03:35 35° SSE 02:08:21 10° E visible
26 Feb - 04:01:51 10° WSW 04:06:39 60° S 04:13:18 10° ESE night (unlit)
26 Feb - 06:04:41 10° W 06:10:14 44° SSW 06:18:18 10° SE night (unlit)
26 Feb - 08:08:49 10° WSW 08:14:08 21° SSW 08:20:59 10° SSE visible
